Regional Weather Roundup
Issued by NWS Wakefield, VA

Home | Current Version | Previous Version | Text Only | Print | Product List | Glossary Off
Versions: 1 2 3 4 5 6 7 8 9 10 11 12 13 14 15 16 17 18 19 20 21 22 23 24 25 26 27 28 29 30 31 32 33 34 35 36 37 38 39 40 41 42 43 44 45 46 47 48 49 50

000
ASUS41 KAKQ 021314
RWRAKQ

REGIONAL WEATHER ROUNDUP
NATIONAL WEATHER SERVICE WAKEFIELD VA
900 AM EDT THU JUL 02 2015

Note: "fair" indicates few or no clouds below 12,000 feet with no
significant weather and/or obstructions to visibility. * = Denotes
station may not report precipitation (e.g., rain,snow,etc.),
thunder or fog.

VAZ042-051-052>054-056-021400-
NORTHERN VIRGINIA

CITY           SKY/WX    TMP DP  RH WIND       PRES   REMARKS
WASH NATIONAL  CLOUDY    73  64  73 N10       29.91F
DULLES         CLOUDY    69  61  75 NE6       29.93R
FORT BELVOIR   CLOUDY    70  65  83 VRB1      29.90F
QUANTICO       CLOUDY    73  63  70 N7        29.91S
FREDERICKSBRG* NOT AVBL
STAFFORD*      NOT AVBL
WARRENTON      NOT AVBL
CULPEPER*      NOT AVBL
MANASSAS*      NOT AVBL
LEESBURG*      NOT AVBL
WINCHESTER     NOT AVBL
FRONT ROYAL*   NOT AVBL
LURAY*         NOT AVBL
$$

VAZ048-049-060>072-079>083-021400-
CENTRAL AND SOUTH CENTRAL VIRGINIA

CITY           SKY/WX    TMP DP  RH WIND       PRES   REMARKS
RICHMOND       CLOUDY    76  71  85 SW5       29.88F
CHESTERFIELD*  NOT AVBL
PETERSBURG*    NOT AVBL
HANOVER        LGT RAIN  74  70  87 CALM      29.89F FOG
TAPPAHANNOCK*  CLOUDY    75  71  87 SW3       29.89S
QUINTON*       NOT AVBL
CHARLOTTSVILLE CLOUDY    71  62  73 E7        29.92R
GORDONSVILLE*  NOT AVBL
ORANGE*        NOT AVBL
LOUISA*        NOT AVBL
BUMPASS*       NOT AVBL
FARMVILLE*     NOT AVBL
CREWE*         NOT AVBL
FORT PICKETT*  NOT AVBL
CHASE CITY*    NOT AVBL
CLARKSVILLE*   NOT AVBL
SOUTH HILL*    NOT AVBL
LAWRENCEVILLE* NOT AVBL
EMPORIA*       NOT AVBL
$$

VAZ088>098-021400-
SOUTHEAST VIRGINIA

CITY           SKY/WX    TMP DP  RH WIND       PRES   REMARKS
NORFOLK        CLOUDY    78  71  79 SW6       29.90R
VIRGINIA BEACH CLOUDY    80  72  76 SW9       29.89S
NORFOLK NAVAL  CLOUDY    77  71  82 SW9       29.91S HAZE
WEST POINT*    NOT AVBL
SALUDA*        NOT AVBL
NEWPORT NEWS   CLOUDY    77  72  84 SW8       29.89F HAZE
LANGLEY AFB    CLOUDY    78  73  84 SW10      29.88S
FORT EUSTIS    CLOUDY    76  76 100 SW6       29.88S
WILLIAMSBURG*  NOT AVBL
HR EXEC AP*    FAIR      75  72  88 SW6       29.92S
FRANKLIN*      NOT AVBL
WAKEFIELD      CLOUDY    76  72  87 SW5       29.90S FOG
$$

VAZ020-022-025-037-045-021400-
WEST CENTRAL AND SOUTHWEST VIRGINIA

CITY           SKY/WX    TMP DP  RH WIND       PRES   REMARKS
STAUNTON*      NOT AVBL
WAYNESBORO*    NOT AVBL
HOT SPRINGS VA NOT AVBL
LYNCHBURG      CLOUDY    74  66  76 NW3       29.94R
DANVILLE       CLOUDY    73  69  87 SW5       29.94R
SOUTH BOSTON*  NOT AVBL
MARTINSVILLE   PTSUNNY   76  65  69 SW3       29.97S
ROANOKE        CLOUDY    73  64  73 W9        29.96S
BLACKSBURG     HVY RAIN  66  66  99 CALM      30.03R
DUBLIN*        NOT AVBL
MARION*        NOT AVBL
HILLSVILLE*    NOT AVBL
RICHLANDS*     NOT AVBL
WISE*          NOT AVBL
ABINGDON*      NOT AVBL
$$

MDZ021>025-VAZ099-100-021400-
SOUTHERN MARYLAND AND THE DELMARVA PENINSULA

CITY           SKY/WX    TMP DP  RH WIND       PRES   REMARKS
PATUXENT RIVER LGT RAIN  74  70  87 N5        29.87S
BAY BRIDGE APT   N/A     72  66  83 N3        29.91S
LEONARDTOWN    CLOUDY    70  66  88 CALM      29.89F
DOVER          LGT RAIN  73  70  88 N6        29.87S
GEORGETOWN     PTSUNNY   73  69  87 CALM      29.88F
EASTON         LGT RAIN  72  72 100 NE6       29.93R FOG
CAMBRIDGE      PTSUNNY   73  68  83 N12       29.88R
SALISBURY      CLOUDY    72  70  93 E3        29.86F
OCEAN CITY     PTSUNNY   75  72  90 S3        29.87F FOG
WALLOPS ISLAND CLOUDY    77  75  93 S12       29.88S FOG
ACCOMACK*      NOT AVBL
$$

NCZ012>017-030>032-021400-
NORTH CENTRAL AND EASTERN NORTH CAROLINA

CITY           SKY/WX    TMP DP  RH WIND       PRES   REMARKS
ROANOKE RAPIDS NOT AVBL
RALEIGH        CLOUDY    76  71  85 SW7       29.94S FOG
ELIZABETH CITY PTSUNNY   79  73  82 S9        29.92S
AHOSKIE*       CLOUDY    75  72  91 CALM      29.92R
EDENTON*       NOT AVBL
CURRITUCK*     NOT AVBL
KILL DEVIL HLS NOT AVBL
MANTEO         NOT AVBL
CAPE HATTERAS  SUNNY     81  75  82 SW9       29.96R
TARBORO*       NOT AVBL
GOLDSBORO      CLOUDY    77  72  82 SW6       29.93S
WASHINGTON     NOT AVBL
GREENVILLE     NOT AVBL
NEW BERN       MOSUNNY   80  72  76 W7        29.97S
WILMINGTON     PTSUNNY   80  70  71 SW9       29.98R
$$

VAZ048-021400-
ELSEWHERE

CITY           SKY/WX    TMP DP  RH WIND       PRES   REMARKS
HARRISBURG PA  MOSUNNY   70  61  73 W3        29.91F
BALTIMORE      RAIN      68  64  87 VRB5      29.92R FOG
ANNAPOLIS      CLOUDY    72  63  73 N8        29.90F
ANDREWS AFB    CLOUDY    69  66  91 N9        29.90S
PHILADELPHIA   CLOUDY    73  61  65 NE3       29.91S
GREENSBORO     CLOUDY    73  67  81 W7        29.95S
ROCKY MOUNT    CLOUDY    78  73  84 SW8       29.93S HAZE
$$

VAZ100-021400-
MARINE

STATION/POSITION TIME  TEMP    WIND        PRES    WAVE   SWELL
                       AIR SEA DIR/SP/G            HT/PER HT/PER
                 (UTC) (F)     (DEG/KT/KT) (MB)    (FT/S) (FT/S)
BRANDYWINE LGT   1200   73 74  100/  5/  5 1012.2S
CAPE MAY NJ      1200   73 77   CALM  /  2 1011.7S
LEWES DE         1200   73 72   50/  1/  2 1011.7F
15NM E FENWICK I 1250   74 73              1011.5F   4/ 8
OCEAN-CITY-INLET 1200   75 71  130/  2/  3 1011.5R
WACHAPREAGUE VA  1200   77 80  210/  2/  4 1012.0R
GOOSES REEF MD   1300   76 78   50/ 10/ 12 1012.7F
COVE POINT MD    1200   73      50/  6/  7 1012.4R
SOLOMONS ISLAND  1200      79                N/A
BISHOPS HEAD MD  1200   74      80/  8/ 11 1010.9F
PINEY POINT MD   1200           80/  2/  3   N/A
CAMBRIDGE MD     1200   73 80  110/  4/  5 1011.8R
LEWISETTA VA     1200   74 81  230/  4/  5 1011.4R
RAPPAHANNOCK LGT 1200          220/ 11/ 12 1012.4R
STINGRAY PT      1300   78 80  230/  8/ 10 1011.9F   1
YORK RVR RNG VA  1200   77     240/ 10/ 11 1011.4R
YORKTOWN VA      1200   76 79  230/ 10/ 12 1011.7R
JAMESTOWN VA     1300   76 82  220/  8/ 12   N/A
DOMINION TERM VA 1200   77     240/ 13/ 15 1012.0R
KIPTOPEKE VA     1200      83  230/ 10/ 12   N/A
CHES BAY BRIDGE  1200   77 76  210/ 14/ 15 1011.6R
CAPE HENRY VA    1200   77     210/  7/ 11 1010.6R
CHESAPEAKE LGHT  1200   77     200/ 14/ 15 1013.0R
WILLOUBY STN VA  1200   77     230/ 10/ 11 1013.2R
CAPE HENRY BUOY  1228      78                N/A     3/ 8
1ST LANDING BUOY 1300      77              1011.9R   2/ 4
CAPE CHARLES BUO 1226      75                N/A     2/ 8   2/ 8
OFFSHORE WE BUOY 1211      78                N/A     4/ 8   3/ 8
64NM E OF VA BCH 1250   78 77  210/ 10/ 12 1013.0R   4/ 8   3/ 8
DUCK PIER NC     1200   79 63  230/ 11/ 16 1012.4R
44100 DUCK FRF   1224      77                N/A     3/ 8
44056 DUCK FRF   1211      72                N/A     2/ 9
OREGON INLET NC  1200   80 79  200/ 12/ 13 1013.4R
HATTERAS NC      1200   78 80  210/  7/ 11 1013.7R
DIAMOND SHLS NC  1250   81 83  230/ 17/ 21 1014.3R   4/ 7   2/ 7
CAPE LOOKOUT NC  1200   80     230/  8/ 12 1014.5R
$$


USA.gov is the U.S. government's official web portal to all federal, state and local government web resources and services.